Regional Weather Roundup
Issued by NWS

Home | Current Version | Previous Version | Text Only | Print | Product List | Glossary On
Versions: 1 2 3 4 5 6 7 8 9 10 11 12 13 14 15 16 17 18 19 20 21 22 23 24 25 26 27 28 29 30 31 32 33 34 35 36 37 38 39 40 41 42 43 44 45 46 47 48 49 50
274
ASUS42 KKEY 062010
RWRKEY

FLORIDA REGIONAL WEATHER ROUNDUP FOR THE FLORIDA KEYS
NATIONAL WEATHER SERVICE KEY WEST FLORIDA
300 PM EST TUE DEC 06 2016

...SOUTH FLORIDA AND THE KEYS...

CITY           SKY/WX    TMP DP  RH WIND       PRES   REMARKS
FORT MYERS     PTSUNNY   81  75  82 S14       29.89F
SW REGIONAL AP PTSUNNY   82  74  76 SW22G28   29.90F
NAPLES         MOSUNNY   81  75  82 S17G24    29.91F
MIAMI          PTSUNNY   85  72  65 S14       29.92F HX  91
WEST KENDALL   MOSUNNY   87  72  60 SW15      29.93S HX  93
HOMESTEAD      NOT AVBL
MARATHON       MOSUNNY   85  76  74 S7        29.94F HX  94
BOCA CHICA NAS MOSUNNY   82  76  81 SW10      29.94F
KEY WEST INTL  SUNNY     82  78  88 SW9       29.95F HX  91

...INTERNATIONAL WEATHER...

CITY           SKY/WX    TMP DP  RH WIND       PRES   REMARKS
NASSAU BAHAMAS MOSUNNY   81  72  74 S8        29.98S
CANCUN MEXICO  MOSUNNY   86  77  74 SE12      29.90F HX  97
COZUMEL MEXICO MOSUNNY   86  75  70 S8        29.88F HX  95

ADJACENT COASTAL WATERS...

STATION/POSITION TIME  SKY/WX   TEMP    WIND        PRES    WAVE
                                AIR SEA DIR/SP/G            HT/PER
                 (UTC)          (F)     (DEG/KT/KT) (MB)    (FT/S)
PULASKI SHOAL LI NOT AVBL
SAND KEY         1950            79     230/  8/  8 1014.5F
LONG KEY         NOT AVBL
MOLASSES REEF    NOT AVBL
FOWEY ROCKS      NOT AVBL

$$




USA.gov is the U.S. government's official web portal to all federal, state and local government web resources and services.